Weather in Shovgenovsky

Russia / Republic of Adygea     45°01′55″N   40°07′36″E
temp.,
°C
wind,
m/s
gust,
m/s
humid.,
%
clouds,
%
prec.,
mm/h
press.,
hPa
HPBL,
m
13 may, thu
thu1300:00+10ese46880 0.0 101286
03:00+9ese33910 0.0 101235
06:00+10s11870 0.0 101319
09:00+18e11695 0.0 1013318
12:00+22ene335858 0.0 1012644
15:00+24e466196 0.0 1012966
18:00+22e4878100 0.0 1011231
21:00+17e514884 0.0 1011240
14 may, fri
fri1400:00+15ese410905 0.0 1010147
03:00+14se22840 0.0 101117
06:00+14ese22741 0.0 101126
09:00+22e34605 0.0 1011212
12:00+27ese46535 0.0 1010561
15:00+29e345231 0.0 1010912
18:00+28ne22709 0.0 100931
21:00+21ese228698 0.0 101013
15 may, sat
sat1500:00+19wsw3594100 0.0 101072
03:00+15wsw36940 0.0 101195
06:00+14sw35910 0.0 1013122
09:00+20wsw33765 0.0 1014364
12:00+24nw22715 0.0 1013630
15:00+27n23646 0.0 10121222
18:00+26nne247675 0.0 1011147
21:00+20se228878 0.6 101116
16 may, sun
sun1600:00+18ese22935 0.0 101021
03:00+17sse119495 0.0 101012
06:00+18ene229415 0.0 100962
09:00+23ene238062 0.0 1008480
12:00+27ne446837 0.0 1006992
15:00+28ne466356 0.0 10051520
18:00+25e41076100 0.3 1004353
21:00+21e498117 0.3 1003157
17 may, mon
mon1700:00+18e487789 0.0 1002121
03:00+15se128075 0.0 100313
06:00+15n238091 0.0 100481
09:00+20wnw346847 0.0 1005378
12:00+24nw666391 0.0 1006993
15:00+24nnw3572100 0.0 1007693
18:00+19nw2385100 0.0 100978
21:00+18wsw3484100 0.3 101090